Fairbanks, AK

4:15 AM AKDT on August 21, 2019 (GMT -0800)
Fairbanks International

Weather History for PAFA - December, 1974

Change the Weather History Date:

Tuesday, December 3, 1974

  Actual Average Record
Temperature  
Mean Temperature -6 °F -2 °F  
Max Temperature -2 °F 6 °F 44 °F (1934)
Min Temperature -13 °F -11 °F -49 °F (1916)
Degree Days  
Heating Degree Days 70 67  
Month to date heating degree days 201  
Since 1 July heating degree days 4332  
Cooling Degree Days 0 0  
Month to date cooling degree days 0  
Year to date cooling degree days 61  
Moisture  
Dew Point -20 °F    
Average Humidity 49    
Maximum Humidity 56    
Minimum Humidity 42    
Precipitation  
Precipitation 0.00 in 0.02 in 0.31 in (1920)
Month to date precipitation 0.06  
Year to date precipitation 10.23  
Snow  
Snow 0.00 in 0.40 in 3.10 in (1920)
Month to date snowfall 1.1  
Since 1 July snowfall 26.9  
Snow Depth -    
Sea Level Pressure  
Sea Level Pressure 29.69 in    
Wind  
Wind Speed 9 mph (North)    
Max Wind Speed 13 mph    
Max Gust Speed -    
Visibility 8 miles    
Events Snow    
T = Trace of Precipitation, MM = Missing Value Source: NWS Daily Summary

Daily Weather History Graph

Daily Weather History Graph

Search for Another Location

Airport or City:

Astronomy

Dec. 03, 1974 Rise Set
Actual Time 9:24 AM AHST 1:57 PM AHST
Civil Twilight 8:08 AM AHST 3:13 PM AHST
Nautical Twilight 6:59 AM AHST 4:22 PM AHST
Astronomical Twilight 5:59 AM AHST 5:22 PM AHST
Moon 8:06 PM AHST (12/3) 11:44 AM AHST (12/3)
Length of Visible Light 7h 05m
Length of Day
4h 32m
Waning Gibbous, 77% of the Moon is Illuminated
Dec 3
Waning Gibbous
Dec 6
Last Quarter
Dec 13
New
Dec 21
First Quarter
Dec 28
Full

Hourly Weather History & Observations

Time (AHST) Temp. Windchill Dew Point Humidity Pressure Visibility Wind Dir Wind Speed Gust Speed Precip Events Conditions
12:00 AM -2.9 °F -20.8 °F -20.9 °F 42% 29.79 in 10.0 mi North 11.5 mph - N/A   Overcast
1:00 AM -2.9 °F -17.7 °F -20.0 °F 44% 29.78 in 10.0 mi North 8.1 mph - N/A   Unknown
2:00 AM -2.9 °F -18.8 °F -18.9 °F 46% 29.75 in 10.0 mi North 9.2 mph - N/A Snow Light Snow
3:00 AM -2.9 °F -13.3 °F -17.0 °F 51% 29.74 in 6.0 mi NE 4.6 mph - N/A Snow Light Snow
4:00 AM -2.9 °F -19.8 °F -15.0 °F 56% 29.72 in 6.0 mi North 10.4 mph - N/A Snow Light Snow
5:00 AM -2.9 °F -19.8 °F -17.0 °F 51% 29.71 in 7.0 mi North 10.4 mph - N/A Snow Light Snow
6:00 AM -2.9 °F -20.8 °F -20.0 °F 44% 29.70 in 7.0 mi North 11.5 mph - N/A Snow Light Snow
7:00 AM -2.9 °F -19.8 °F -20.0 °F 44% 29.69 in 6.0 mi North 10.4 mph - N/A Snow Light Snow
8:00 AM -2.9 °F -20.8 °F -20.0 °F 44% 29.69 in 7.0 mi North 11.5 mph - N/A Snow Light Snow
9:00 AM -5.1 °F -22.5 °F -22.0 °F 44% 29.68 in 10.0 mi North 10.4 mph - N/A Snow Light Snow
10:00 AM -5.1 °F -20.4 °F -20.0 °F 49% 29.68 in 10.0 mi North 8.1 mph - N/A Snow Light Snow
11:00 AM -4.0 °F -23.0 °F -20.0 °F 46% 29.68 in 10.0 mi North 12.7 mph - N/A   Mostly Cloudy
11:18 AM - - - N/A% 29.63 in 3.0 mi North 10.4 mph - N/A   Unknown
11:25 AM - - - N/A% 29.63 in 2.0 mi North 10.4 mph - N/A   Unknown
11:38 AM - - - N/A% 29.63 in 3.0 mi NNW 9.2 mph - N/A   Unknown
12:00 PM -4.0 °F -20.2 °F -18.9 °F 49% 29.69 in 6.0 mi NNW 9.2 mph - N/A Snow Light Snow
1:00 PM -4.0 °F -17.8 °F -18.9 °F 49% 29.69 in 10.0 mi North 6.9 mph - N/A Snow Light Snow
2:00 PM -4.0 °F -16.3 °F -18.9 °F 49% 29.69 in 10.0 mi North 5.8 mph - N/A Snow Light Snow
3:00 PM -4.0 °F - -18.0 °F 51% 29.69 in 10.0 mi Calm Calm - N/A   Scattered Clouds
4:00 PM -9.0 °F -20.4 °F -20.9 °F 56% 29.69 in 10.0 mi NNW 4.6 mph - N/A   Mostly Cloudy
5:00 PM -9.0 °F -20.4 °F -22.0 °F 53% 29.69 in 10.0 mi NNW 4.6 mph - N/A Snow Light Snow
6:00 PM -9.9 °F -23.4 °F -24.0 °F 50% 29.68 in 10.0 mi North 5.8 mph - N/A Snow Light Snow
7:00 PM -8.0 °F -22.5 °F -20.9 °F 53% 29.68 in 10.0 mi North 6.9 mph - N/A Snow Light Snow
8:00 PM -8.0 °F -23.9 °F -22.0 °F 50% 29.68 in 10.0 mi North 8.1 mph - N/A Snow Light Snow
9:00 PM -8.0 °F -19.2 °F -20.9 °F 53% 29.68 in 10.0 mi NNE 4.6 mph - N/A Snow Light Snow
10:00 PM -9.9 °F -21.5 °F -24.0 °F 50% 29.68 in 10.0 mi East 4.6 mph - N/A Snow Light Snow
11:00 PM -13.0 °F -27.0 °F -27.0 °F 50% 29.68 in 10.0 mi East 5.8 mph - N/A Snow Light Snow